This is the latest recevied weather packets stored in our database for station/object IW2LSY-11. If no packets are shown the sender has not sent any weather packets the latest 10 day(s).
| Time | Temp. | Humidity | Pressure | Rain* | Wind** | Luminosity | Snow |
|---|---|---|---|---|---|---|---|
| 1777927807 | 15° C | 54% | 1016.7 hPa | - | - | 420 W/m² | - |
| 1777927208 | 15° C | 54% | 1016.6 hPa | - | - | 420 W/m² | - |
| 1777926608 | 15° C | 53% | 1016.6 hPa | - | - | 420 W/m² | - |
| 1777926009 | 15.56° C | 53% | 1016.4 hPa | - | - | 421 W/m² | - |
| 1777925409 | 15.56° C | 53% | 1016.4 hPa | - | - | 421 W/m² | - |
| 1777924809 | 16.11° C | 50% | 1016.3 hPa | - | - | 422 W/m² | - |
| 1777924209 | 16.11° C | 51% | 1016.3 hPa | - | - | 423 W/m² | - |
| 1777923609 | 17.22° C | 46% | 1016.1 hPa | - | - | 424 W/m² | - |
| 1777923009 | 16.67° C | 48% | 1016 hPa | - | - | 425 W/m² | - |
| 1777922409 | 17.22° C | 49% | 1015.9 hPa | - | - | 425 W/m² | - |
| 1777921810 | 17.78° C | 46% | 1015.8 hPa | - | - | 426 W/m² | - |
| 1777921210 | 17.78° C | 44% | 1015.7 hPa | - | - | 427 W/m² | - |
| 1777920609 | 19.44° C | 41% | 1015.5 hPa | - | - | 427 W/m² | - |
| 1777920009 | 19.44° C | 41% | 1015.4 hPa | - | - | 428 W/m² | - |
| 1777919409 | 20° C | 40% | 1015.4 hPa | - | - | 428 W/m² | - |
| 1777918810 | 20° C | 40% | 1015.3 hPa | - | - | 428 W/m² | - |
| 1777918210 | 19.44° C | 42% | 1015.3 hPa | - | - | 430 W/m² | - |
| 1777917610 | 20.56° C | 42% | 1015.2 hPa | - | - | 430 W/m² | - |
| 1777917010 | 21.11° C | 40% | 1015.2 hPa | - | - | 430 W/m² | - |
| 1777916411 | 21.11° C | 39% | 1015.1 hPa | - | - | 431 W/m² | - |
| 1777915811 | 21.67° C | 39% | 1015 hPa | - | - | 431 W/m² | - |
| 1777915212 | 21.11° C | 39% | 1014.9 hPa | - | - | 432 W/m² | - |
| 1777914613 | 21.11° C | 33% | 1014.8 hPa | - | - | 433 W/m² | - |
| 1777914013 | 21.67° C | 33% | 1014.8 hPa | - | - | 434 W/m² | - |
| 1777913413 | 21.67° C | 35% | 1014.8 hPa | - | - | 435 W/m² | - |
* Rain since midnight (hover to see other rain measurements)
** Current wind speed in m/s (hover to see current wind gust speed)